Siler City, NC

6:59 AM EST on January 23, 2017 (GMT -0500)
Siler City Muni, Siler City,

Weather History for K5W8 - March, 2014

Change the Weather History Date:

Saturday, March 8, 2014

  Actual Average (KBUY) Record (KBUY)
Temperature  
Mean Temperature 46 °F -  
Max Temperature 67 °F 58 °F 86 °F (1974)
Min Temperature 25 °F 33 °F 16 °F (1960)
Degree Days  
Heating Degree Days 20    
Moisture  
Dew Point 36 °F    
Average Humidity 76    
Maximum Humidity 100    
Minimum Humidity 35    
Precipitation  
Precipitation 0.00 in - - ()
Sea Level Pressure  
Sea Level Pressure 30.01 in    
Wind  
Wind Speed 2 mph (SW)    
Max Wind Speed 12 mph    
Max Gust Speed 17 mph    
Visibility 9 miles    
Events      
Averages and records for this station are not official NWS values.
T = Trace of Precipitation, MM = Missing Value Source: NWS Daily Summary

Daily Weather History Graph

Daily Weather History Graph

Search for Another Location

Airport or City:

Trip Planner

Search our weather history database for the weather conditions in past years. The results will help you decide how hot, cold, wet, or windy it might be!

Date:

Astronomy

Mar. 08, 2014 Rise Set
Actual Time 6:38 AM EST 6:19 PM EST
Civil Twilight 6:13 AM EST 6:44 PM EST
Nautical Twilight 5:43 AM EST 7:14 PM EST
Astronomical Twilight 5:13 AM EST 7:44 PM EST
Moon 11:30 AM EST (3/8) 1:03 AM EST (3/8)
Length of Visible Light 12h 31m
Length of Day
11h 40m
First Quarter, 51% of the Moon is Illuminated
Mar 8
First Quarter
Mar 16
Full
Mar 23
Last Quarter
Mar 30
New
Apr 7
First Quarter

Hourly Weather History & Observations

Time (EST) Temp. Windchill Dew Point Humidity Pressure Visibility Wind Dir Wind Speed Gust Speed Precip Events Conditions
12:15 AM 28.9 °F - 28.9 °F 100% 29.97 in 1.2 mi Calm Calm - N/A   Mist
12:35 AM 29.5 °F - 29.5 °F 100% 29.98 in 5.0 mi Calm Calm - N/A   Clear
12:55 AM 28.0 °F - 28.0 °F 100% 29.97 in 4.0 mi Calm Calm - N/A   Clear
1:15 AM 29.1 °F - 29.1 °F 100% 29.99 in 7.0 mi Calm Calm - N/A   Clear
1:35 AM 27.7 °F - 27.7 °F 100% 29.99 in 5.0 mi Calm Calm - N/A   Clear
1:55 AM 28.0 °F - 28.0 °F 100% 30.00 in 7.0 mi Calm Calm - N/A   Clear
2:15 AM 27.9 °F - 27.9 °F 100% 30.01 in 5.0 mi Calm Calm - N/A   Clear
2:35 AM 27.0 °F - 27.0 °F 100% 30.01 in 5.0 mi Calm Calm - N/A   Clear
2:55 AM 28.0 °F - 28.0 °F 100% 30.01 in 7.0 mi Calm Calm - N/A   Clear
3:15 AM 26.6 °F - 26.6 °F 100% 29.99 in 7.0 mi Calm Calm - N/A   Clear
3:35 AM 27.0 °F - 27.0 °F 100% 29.99 in 7.0 mi Calm Calm - N/A   Clear
3:55 AM 27.1 °F - 27.1 °F 100% 29.99 in 7.0 mi Calm Calm - N/A   Clear
4:15 AM 26.6 °F - 26.6 °F 100% 30.00 in 7.0 mi Calm Calm - N/A   Clear
4:35 AM 26.6 °F - 26.6 °F 100% 30.01 in 7.0 mi Calm Calm - N/A   Clear
4:55 AM 26.1 °F - 26.1 °F 100% 30.01 in 7.0 mi Calm Calm - N/A   Clear
5:15 AM 26.4 °F - 26.4 °F 100% 30.00 in 7.0 mi Calm Calm - N/A   Clear
5:35 AM 25.7 °F - 25.7 °F 100% 30.00 in 10.0 mi Calm Calm - N/A   Clear
5:55 AM 26.2 °F - 26.2 °F 100% 30.01 in 10.0 mi Calm Calm - N/A   Clear
6:15 AM 26.4 °F - 26.4 °F 100% 30.02 in 10.0 mi Calm Calm - N/A   Clear
6:35 AM 26.6 °F - 26.6 °F 100% 30.03 in 10.0 mi Calm Calm - N/A   Clear
6:55 AM 25.9 °F - 25.9 °F 100% 30.04 in 7.0 mi Calm Calm - N/A   Clear
7:15 AM 27.3 °F - 27.3 °F 100% 30.05 in 10.0 mi Calm Calm - N/A   Clear
7:35 AM 28.6 °F - 28.4 °F 99% 30.06 in 10.0 mi Calm Calm - N/A   Clear
7:55 AM 30.9 °F - 30.7 °F 99% 30.06 in 10.0 mi Calm Calm - N/A   Clear
8:15 AM 34.7 °F - 34.5 °F 99% 30.06 in 10.0 mi Calm Calm - N/A   Clear
8:35 AM 37.9 °F - 36.9 °F 96% 30.06 in 10.0 mi Calm Calm - N/A   Clear
8:55 AM 40.1 °F - 37.4 °F 90% 30.07 in 10.0 mi Calm Calm - N/A   Clear
9:15 AM 43.2 °F - 39.7 °F 88% 30.07 in 10.0 mi Calm Calm - N/A   Clear
9:35 AM 45.7 °F 44.4 °F 40.3 °F 81% 30.08 in 10.0 mi West 3.5 mph - N/A   Clear
9:55 AM 47.5 °F - 41.0 °F 78% 30.08 in 10.0 mi Calm Calm - N/A   Clear
10:15 AM 50.7 °F - 42.8 °F 74% 30.07 in 10.0 mi West 3.5 mph - N/A   Clear
10:35 AM 52.7 °F - 42.4 °F 68% 30.06 in 10.0 mi Calm Calm - N/A   Clear
10:55 AM 55.8 °F - 43.3 °F 63% 30.06 in 10.0 mi West 4.6 mph - N/A   Clear
11:15 AM 57.0 °F - 43.7 °F 61% 30.06 in 10.0 mi WSW 5.8 mph - N/A   Clear
11:35 AM 58.3 °F - 43.0 °F 57% 30.05 in 10.0 mi Calm Calm - N/A   Clear
11:55 AM 60.1 °F - 43.5 °F 54% 30.05 in 10.0 mi West 6.9 mph - N/A   Clear
12:15 PM 61.0 °F - 43.5 °F 53% 30.04 in 10.0 mi SW 6.9 mph - N/A   Clear
12:35 PM 61.9 °F - 42.8 °F 50% 30.04 in 10.0 mi WNW 6.9 mph - N/A   Clear
12:55 PM 63.1 °F - 41.4 °F 45% 30.03 in 10.0 mi SW 9.2 mph - N/A   Clear
1:15 PM 64.2 °F - 40.6 °F 42% 30.02 in 10.0 mi West 5.8 mph - N/A   Clear
1:35 PM 63.9 °F - 41.2 °F 43% 30.01 in 10.0 mi WSW 5.8 mph - N/A   Clear
1:55 PM 64.4 °F - 40.3 °F 41% 29.99 in 10.0 mi West 8.1 mph - N/A   Clear
2:15 PM 65.5 °F - 40.8 °F 41% 29.99 in 10.0 mi SSW 10.4 mph - N/A   Clear
2:35 PM 65.5 °F - 39.0 °F 38% 29.98 in 10.0 mi WSW 6.9 mph - N/A   Clear
2:55 PM 66.0 °F - 37.8 °F 35% 29.98 in 10.0 mi SW 9.2 mph 17.3 mph N/A   Clear
3:15 PM 66.6 °F - 38.3 °F 35% 29.98 in 10.0 mi SSW 11.5 mph 16.1 mph N/A   Clear
3:35 PM 66.4 °F - 40.3 °F 38% 29.98 in 10.0 mi SW 6.9 mph - N/A   Clear
3:55 PM 66.0 °F - 39.4 °F 38% 29.97 in 10.0 mi SW 6.9 mph - N/A   Clear
4:10 PM 66.2 °F - 39.9 °F 38% 29.97 in 10.0 mi SW 6.9 mph 16.1 mph N/A   Clear
4:35 PM 66.2 °F - 39.6 °F 38% 29.97 in 10.0 mi WSW 8.1 mph - N/A   Clear
4:55 PM 65.8 °F - 39.2 °F 38% 29.97 in 10.0 mi SW 6.9 mph - N/A   Clear
5:15 PM 65.5 °F - 37.9 °F 36% 29.97 in 10.0 mi WSW 8.1 mph - N/A   Clear
5:35 PM 64.8 °F - 38.5 °F 38% 29.98 in 10.0 mi SW 4.6 mph - N/A   Clear
5:55 PM 63.5 °F - 38.3 °F 39% 29.99 in 10.0 mi SW 6.9 mph - N/A   Clear
6:15 PM 62.4 °F - 39.2 °F 42% 29.99 in 10.0 mi SW 5.8 mph - N/A   Clear
6:35 PM 57.9 °F - 40.3 °F 52% 29.99 in 10.0 mi Calm Calm - N/A   Clear
6:55 PM 54.0 °F - 41.5 °F 63% 30.00 in 10.0 mi Calm Calm - N/A   Clear
7:15 PM 52.3 °F - 41.9 °F 68% 30.01 in 10.0 mi Calm Calm - N/A   Clear
7:35 PM 49.3 °F - 42.6 °F 78% 30.01 in 10.0 mi Calm Calm - N/A   Clear
7:55 PM 46.8 °F - 42.3 °F 84% 30.01 in 10.0 mi Calm Calm - N/A   Clear
8:15 PM 46.8 °F - 42.4 °F 85% 30.01 in 10.0 mi Calm Calm - N/A   Clear
8:35 PM 46.8 °F - 42.3 °F 84% 30.01 in 10.0 mi SSW 3.5 mph - N/A   Clear
8:55 PM 46.6 °F - 42.1 °F 84% 30.01 in 10.0 mi Calm Calm - N/A   Clear
9:15 PM 44.2 °F - 40.8 °F 88% 30.01 in 10.0 mi Calm Calm - N/A   Clear
9:35 PM 44.4 °F 42.9 °F 41.4 °F 89% 30.01 in 10.0 mi South 3.5 mph - N/A   Clear
9:55 PM 43.7 °F 42.1 °F 41.4 °F 91% 30.01 in 10.0 mi SSW 3.5 mph - N/A   Clear
10:15 PM 43.9 °F 42.3 °F 40.3 °F 87% 30.00 in 10.0 mi SSW 3.5 mph - N/A   Clear
10:35 PM 43.9 °F - 40.5 °F 88% 29.99 in 10.0 mi Calm Calm - N/A   Clear
10:55 PM 42.1 °F - 40.6 °F 95% 29.99 in 10.0 mi Calm Calm - N/A   Clear
11:15 PM 42.1 °F - 40.8 °F 95% 29.99 in 10.0 mi Calm Calm - N/A   Clear
11:35 PM 41.9 °F - 40.8 °F 96% 29.99 in 10.0 mi Calm Calm - N/A   Clear
11:55 PM 40.3 °F - 39.6 °F 97% 29.99 in 10.0 mi Calm Calm - N/A   Clear